This is the latest recevied weather packets stored in our database for station/object XW7RMR. If no packets are shown the sender has not sent any weather packets the latest 1 day(s).
| Time | Temp. | Humidity | Pressure | Rain* | Wind** | Luminosity | Snow |
|---|---|---|---|---|---|---|---|
| 1778039357 | 16.11° C | 76% | 1014.6 hPa | 0 mm | 0 m/s | 0 W/m² | - |
| 1778039054 | 16.67° C | 76% | 1014.4 hPa | 0 mm | 0 m/s | 0 W/m² | - |
| 1778038751 | 16.67° C | 75% | 1014.4 hPa | 0 mm | 0.45 m/s, 142° | 1 W/m² | - |
| 1778038448 | 16.67° C | 75% | 1014.3 hPa | 0 mm | 0.89 m/s, 147° | 1 W/m² | - |
| 1778038145 | 16.67° C | 74% | 1014.3 hPa | 0 mm | 0 m/s | 2 W/m² | - |
| 1778037842 | 17.22° C | 74% | 1014.3 hPa | 0 mm | 0 m/s | 4 W/m² | - |
| 1778037538 | 17.22° C | 74% | 1014.4 hPa | 0 mm | 0.89 m/s, 111° | 6 W/m² | - |
| 1778037236 | 17.22° C | 73% | 1014.2 hPa | 0 mm | 0 m/s | 9 W/m² | - |
| 1778036933 | 17.22° C | 72% | 1014.2 hPa | 0 mm | 0.45 m/s, 112° | 12 W/m² | - |
| 1778036631 | 17.78° C | 71% | 1014.2 hPa | 0 mm | 0.89 m/s, 111° | 15 W/m² | - |
| 1778036328 | 17.78° C | 71% | 1014.2 hPa | 0 mm | 0 m/s | 19 W/m² | - |
| 1778036024 | 17.78° C | 71% | 1014.1 hPa | 0 mm | 0 m/s | 23 W/m² | - |
| 1778035721 | 17.78° C | 70% | 1013.8 hPa | 0 mm | 0.89 m/s, 79° | 26 W/m² | - |
| 1778035418 | 17.78° C | 70% | 1014 hPa | 0 mm | 0.89 m/s, 117° | 31 W/m² | - |
| 1778035114 | 18.33° C | 70% | 1013.8 hPa | 0 mm | 1.79 m/s, 138° | 35 W/m² | - |
| 1778034811 | 18.33° C | 69% | 1014 hPa | 0 mm | 1.34 m/s, 86° | 44 W/m² | - |
| 1778034508 | 18.89° C | 68% | 1013.8 hPa | 0 mm | 0.89 m/s, 147° | 48 W/m² | - |
| 1778034206 | 18.89° C | 67% | 1013.9 hPa | 0 mm | 0 m/s | 60 W/m² | - |
| 1778033904 | 18.89° C | 66% | 1014 hPa | 0 mm | 0 m/s | 69 W/m² | - |
| 1778033600 | 18.89° C | 67% | 1014 hPa | 0 mm | 0.45 m/s, 114° | 83 W/m² | - |
| 1778033297 | 18.89° C | 67% | 1013.9 hPa | 0 mm | 0 m/s | 99 W/m² | - |
| 1778032995 | 18.89° C | 66% | 1013.9 hPa | 0 mm | 0.45 m/s, 38° | 106 W/m² | - |
| 1778032693 | 18.89° C | 67% | 1014.1 hPa | 0 mm | 0.45 m/s, 66° | 104 W/m² | - |
| 1778032390 | 18.89° C | 66% | 1013.8 hPa | 0 mm | 0.89 m/s, 162° | 124 W/m² | - |
| 1778032086 | 18.89° C | 66% | 1013.9 hPa | 0 mm | 0.89 m/s, 137° | 138 W/m² | - |
* Rain latest hour (hover to see other rain measurements)
** Current wind speed in m/s (hover to see current wind gust speed)